| time (UTC) | temp C | wind direction | speed KPH | gust KPH | rain 1hr cm | rain 24hr cm | rain mn cm | humidity % | barometer mb |
| 20260510055003 | 25 | 155 | 8.0 | 20.9 | 0.00 | 0.00 | 0.00 | 92 | 1012.0 |
| 20260510054516 | 25 | 140 | 9.7 | 22.5 | 0.00 | 0.00 | 0.00 | 92 | 1011.9 |
| 20260510054004 | 25 | 164 | 9.7 | 27.4 | 0.00 | 0.00 | 0.00 | 92 | 1012.1 |
| 20260510053507 | 25 | 191 | 12.9 | 27.4 | 0.00 | 0.00 | 0.00 | 92 | 1012.1 |
| 20260510053018 | 25 | 103 | 11.3 | 27.4 | 0.00 | 0.00 | 0.00 | 91 | 1012.2 |
| 20260510052507 | 25 | 157 | 8.0 | 24.1 | 0.00 | 0.00 | 0.00 | 91 | 1012.2 |
| 20260510052011 | 25 | 129 | 9.7 | 24.1 | 0.00 | 0.00 | 0.00 | 91 | 1012.3 |
| 20260510051524 | 25 | 130 | 8.0 | 25.7 | 0.00 | 0.00 | 0.00 | 91 | 1012.1 |
| 20260510051013 | 25 | 131 | 11.3 | 27.4 | 0.00 | 0.00 | 0.00 | 91 | 1012.2 |
| 20260510050507 | 25 | 116 | 12.9 | 27.4 | 0.00 | 0.00 | 0.00 | 91 | 1012.4 |
| 20260510050027 | 25 | 140 | 14.5 | 29.0 | 0.00 | 0.00 | 0.00 | 91 | 1012.4 |
| 20260510045512 | 25 | 134 | 16.1 | 30.6 | 0.00 | 0.00 | 0.00 | 91 | 1012.4 |
| 20260510045003 | 25 | 115 | 19.3 | 29.0 | 0.00 | 0.00 | 0.00 | 91 | 1012.5 |
| 20260510044514 | 25 | 104 | 14.5 | 27.4 | 0.00 | 0.00 | 0.00 | 91 | 1012.5 |
| 20260510044003 | 25 | 94 | 11.3 | 27.4 | 0.00 | 0.00 | 0.00 | 92 | 1012.7 |
| 20260510043504 | 25 | 121 | 11.3 | 24.1 | 0.00 | 0.00 | 0.00 | 92 | 1012.8 |
| 20260510043018 | 25 | 81 | 12.9 | 22.5 | 0.00 | 0.00 | 0.00 | 92 | 1012.9 |
| 20260510042508 | 25 | 108 | 12.9 | 24.1 | 0.00 | 0.00 | 0.00 | 92 | 1012.8 |
| 20260510042006 | 25 | 125 | 16.1 | 24.1 | 0.00 | 0.00 | 0.00 | 92 | 1012.9 |
| 20260510041528 | 25 | 109 | 14.5 | 24.1 | 0.00 | 0.00 | 0.00 | 92 | 1012.9 |
| 20260510041010 | 25 | 102 | 14.5 | 24.1 | 0.00 | 0.00 | 0.00 | 93 | 1013.0 |
| 20260510040507 | 25 | 136 | 11.3 | 24.1 | 0.00 | 0.00 | 0.00 | 93 | 1013.0 |
| 20260510040028 | 25 | 91 | 12.9 | 24.1 | 0.00 | 0.00 | 0.00 | 93 | 1012.9 |
| 20260510035507 | 25 | 103 | 12.9 | 24.1 | 0.00 | 0.00 | 0.00 | 93 | 1012.9 |
| 20260510035008 | 25 | 104 | 9.7 | 19.3 | 0.00 | 0.00 | 0.00 | 93 | 1012.8 |
| 20260510034526 | 25 | 131 | 9.7 | 19.3 | 0.00 | 0.00 | 0.00 | 93 | 1012.7 |
| 20260510034010 | 25 | 117 | 6.4 | 20.9 | 0.00 | 0.00 | 0.00 | 93 | 1012.8 |
| 20260510033504 | 25 | 90 | 11.3 | 20.9 | 0.00 | 0.00 | 0.00 | 93 | 1012.8 |
| 20260510033016 | 25 | 59 | 12.9 | 24.1 | 0.00 | 0.00 | 0.00 | 93 | 1012.9 |
| 20260510032506 | 25 | 87 | 12.9 | 24.1 | 0.00 | 0.00 | 0.00 | 93 | 1012.7 |
| 20260510032009 | 25 | 115 | 12.9 | 24.1 | 0.00 | 0.00 | 0.00 | 93 | 1012.7 |
| 20260510031518 | 25 | 134 | 9.7 | 19.3 | 0.00 | 0.00 | 0.00 | 93 | 1012.6 |
| 20260510031007 | 25 | 94 | 8.0 | 20.9 | 0.00 | 0.00 | 0.00 | 93 | 1012.7 |
| 20260510030510 | 25 | 98 | 9.7 | 22.5 | 0.00 | 0.00 | 0.00 | 92 | 1012.7 |
| 20260510030021 | 25 | 95 | 14.5 | 22.5 | 0.00 | 0.00 | 0.00 | 92 | 1012.7 |
| 20260510025508 | 25 | 74 | 11.3 | 19.3 | 0.00 | 0.00 | 0.00 | 92 | 1012.5 |
| 20260510025012 | 25 | 91 | 12.9 | 19.3 | 0.00 | 0.00 | 0.00 | 92 | 1012.4 |
| 20260510024528 | 25 | 88 | 11.3 | 20.9 | 0.00 | 0.00 | 0.00 | 92 | 1012.4 |
| 20260510024007 | 25 | 102 | 8.0 | 20.9 | 0.00 | 0.00 | 0.00 | 92 | 1012.0 |
| 20260510023508 | 25 | 130 | 9.7 | 19.3 | 0.00 | 0.00 | 0.00 | 92 | 1011.9 |
| 20260510023041 | 25 | 113 | 8.0 | 19.3 | 0.00 | 0.00 | 0.00 | 92 | 1012.0 |
| 20260510022507 | 25 | 119 | 9.7 | 19.3 | 0.00 | 0.00 | 0.00 | 91 | 1012.0 |
| 20260510022009 | 25 | 106 | 9.7 | 16.1 | 0.00 | 0.00 | 0.00 | 91 | 1011.6 |
| 20260510021518 | 25 | 134 | 9.7 | 19.3 | 0.00 | 0.00 | 0.00 | 91 | 1011.3 |
| 20260510021004 | 25 | 142 | 9.7 | 19.3 | 0.00 | 0.00 | 0.00 | 91 | 1011.3 |
| 20260510020507 | 25 | 122 | 9.7 | 19.3 | 0.00 | 0.00 | 0.00 | 91 | 1011.2 |
| 20260510020004 | 25 | 117 | 4.8 | 14.5 | 0.00 | 0.00 | 0.00 | 90 | 1011.1 |
| 20260510015503 | 25 | 92 | 8.0 | 19.3 | 0.00 | 0.00 | 0.00 | 91 | 1011.1 |
| 20260510015002 | 25 | 93 | 9.7 | 19.3 | 0.00 | 0.00 | 0.00 | 91 | 1011.1 |
| 20260510014504 | 25 | 100 | 6.4 | 14.5 | 0.00 | 0.00 | 0.00 | 91 | 1010.9 |
| 20260510014003 | 25 | 103 | 9.7 | 16.1 | 0.00 | 0.00 | 0.00 | 91 | 1010.7 |
| 20260510013505 | 25 | 84 | 6.4 | 16.1 | 0.00 | 0.00 | 0.00 | 91 | 1010.6 |
| 20260510013012 | 26 | 106 | 8.0 | 16.1 | 0.00 | 0.00 | 0.00 | 91 | 1010.4 |
| 20260510012503 | 26 | 100 | 9.7 | 14.5 | 0.00 | 0.00 | 0.00 | 90 | 1010.2 |
| 20260510012006 | 26 | 122 | 6.4 | 14.5 | 0.00 | 0.00 | 0.00 | 90 | 1010.0 |
| 20260510011521 | 26 | 136 | 3.2 | 11.3 | 0.00 | 0.00 | 0.00 | 90 | 1010.0 |
| 20260510011012 | 26 | 126 | 3.2 | 12.9 | 0.00 | 0.00 | 0.00 | 90 | 1010.1 |
| 20260510010504 | 26 | 148 | 6.4 | 14.5 | 0.00 | 0.00 | 0.00 | 89 | 1010.2 |
| 20260510010023 | 26 | 111 | 4.8 | 14.5 | 0.00 | 0.00 | 0.00 | 89 | 1010.2 |
| 20260510005508 | 26 | 123 | 3.2 | 16.1 | 0.00 | 0.00 | 0.00 | 89 | 1009.9 |
| 20260510005008 | 26 | 141 | 6.4 | 16.1 | 0.00 | 0.00 | 0.00 | 89 | 1009.7 |
| 20260510004506 | 26 | 181 | 8.0 | 14.5 | 0.00 | 0.00 | 0.00 | 89 | 1009.8 |
| 20260510004003 | 26 | 144 | 4.8 | 12.9 | 0.00 | 0.00 | 0.00 | 88 | 1009.8 |
| 20260510003504 | 26 | 163 | 3.2 | 12.9 | 0.00 | 0.00 | 0.00 | 88 | 1009.7 |
| 20260510003008 | 26 | 133 | 3.2 | 19.3 | 0.00 | 0.00 | 0.00 | 88 | 1009.8 |
| 20260510002502 | 26 | 159 | 6.4 | 22.5 | 0.00 | 0.00 | 0.00 | 88 | 1009.7 |
| 20260510002005 | 26 | 126 | 9.7 | 22.5 | 0.00 | 0.00 | 0.00 | 88 | 1009.8 |
| 20260510001511 | 27 | 135 | 11.3 | 22.5 | 0.00 | 0.00 | 0.00 | 87 | 1009.6 |
| 20260510001004 | 27 | 136 | 11.3 | 22.5 | 0.00 | 0.00 | 0.00 | 87 | 1009.6 |
| 20260510000505 | 27 | 128 | 9.7 | 17.7 | 0.00 | 0.00 | 0.00 | 87 | 1009.7 |
| 20260510000016 | 27 | 148 | 6.4 | 20.9 | 0.00 | 0.00 | 0.00 | 87 | 1009.6 |
| 20260509235507 | 27 | 117 | 11.3 | 24.1 | 0.00 | 0.00 | 0.00 | 87 | 1009.7 |
| 20260509235006 | 27 | 143 | 12.9 | 25.7 | 0.00 | 0.00 | 0.00 | 87 | 1009.7 |
| 20260509234523 | 27 | 157 | 12.9 | 25.7 | 0.00 | 0.00 | 0.00 | 86 | 1009.7 |
| 20260509234006 | 27 | 142 | 9.7 | 19.3 | 0.00 | 0.00 | 0.00 | 85 | 1009.7 |
| 20260509233508 | 27 | 91 | 9.7 | 22.5 | 0.00 | 0.00 | 0.00 | 84 | 1009.7 |
| 20260509233028 | 27 | 121 | 9.7 | 22.5 | 0.00 | 0.00 | 0.00 | 84 | 1009.6 |
| 20260509232503 | 28 | 125 | 8.0 | 22.5 | 0.00 | 0.00 | 0.00 | 84 | 1009.6 |
| 20260509232003 | 28 | 107 | 14.5 | 22.5 | 0.00 | 0.00 | 0.00 | 84 | 1009.7 |
| 20260509231508 | 28 | 132 | 8.0 | 17.7 | 0.00 | 0.00 | 0.00 | 83 | 1009.5 |
| 20260509231003 | 28 | 98 | 6.4 | 14.5 | 0.00 | 0.00 | 0.00 | 82 | 1009.6 |
| 20260509230507 | 28 | 144 | 8.0 | 17.7 | 0.00 | 0.00 | 0.00 | 82 | 1009.6 |
| 20260509230013 | 28 | 126 | 8.0 | 17.7 | 0.00 | 0.00 | 0.00 | 82 | 1009.6 |
| 20260509225504 | 28 | 161 | 8.0 | 16.1 | 0.00 | 0.00 | 0.00 | 82 | 1009.5 |
| 20260509225004 | 28 | 148 | 4.8 | 16.1 | 0.00 | 0.00 | 0.00 | 81 | 1009.3 |
| 20260509224519 | 28 | 144 | 9.7 | 14.5 | 0.00 | 0.00 | 0.00 | 81 | 1009.4 |
| 20260509224006 | 28 | 125 | 6.4 | 12.9 | 0.00 | 0.00 | 0.00 | 81 | 1009.4 |
| 20260509223511 | 28 | 112 | 6.4 | 14.5 | 0.00 | 0.00 | 0.00 | 81 | 1009.4 |
| 20260509223026 | 28 | 154 | 9.7 | 17.7 | 0.00 | 0.00 | 0.00 | 81 | 1009.3 |
| 20260509222506 | 28 | 134 | 9.7 | 17.7 | 0.00 | 0.00 | 0.00 | 80 | 1009.3 |
| 20260509222009 | 29 | 107 | 8.0 | 16.1 | 0.00 | 0.00 | 0.00 | 78 | 1009.2 |
| 20260509221526 | 29 | 163 | 6.4 | 14.5 | 0.00 | 0.00 | 0.00 | 77 | 1009.1 |
| 20260509221004 | 29 | 172 | 3.2 | 16.1 | 0.00 | 0.00 | 0.00 | 78 | 1009.1 |
| 20260509220504 | 29 | 104 | 4.8 | 16.1 | 0.00 | 0.00 | 0.00 | 79 | 1009.1 |
| 20260509220011 | 29 | 148 | 6.4 | 12.9 | 0.00 | 0.00 | 0.00 | 78 | 1009.0 |
| 20260509215504 | 29 | 140 | 4.8 | 11.3 | 0.00 | 0.03 | 0.00 | 78 | 1009.0 |
| 20260509215004 | 29 | 124 | 6.4 | 16.1 | 0.00 | 0.03 | 0.00 | 77 | 1009.0 |
| 20260509214515 | 30 | 136 | 8.0 | 16.1 | 0.00 | 0.03 | 0.00 | 77 | 1009.0 |
| 20260509214007 | 30 | 148 | 4.8 | 14.5 | 0.00 | 0.03 | 0.00 | 77 | 1009.0 |
| 20260509213508 | 30 | 154 | 4.8 | 14.5 | 0.00 | 0.03 | 0.00 | 76 | 1008.9 |
| 20260509213024 | 30 | 138 | 4.8 | 14.5 | 0.00 | 0.03 | 0.00 | 76 | 1008.9 |
| 20260509212509 | 30 | 118 | 6.4 | 11.3 | 0.00 | 0.03 | 0.00 | 77 | 1009.0 |
| 20260509212013 | 29 | 145 | 4.8 | 9.7 | 0.00 | 0.03 | 0.00 | 77 | 1009.2 |
| 20260509211547 | 29 | 127 | 3.2 | 9.7 | 0.00 | 0.03 | 0.00 | 77 | 1009.2 |
| 20260509211006 | 29 | 101 | 4.8 | 9.7 | 0.00 | 0.03 | 0.00 | 76 | 1009.1 |
| 20260509210508 | 29 | 138 | 6.4 | 11.3 | 0.00 | 0.03 | 0.00 | 77 | 1009.1 |
| 20260509210026 | 29 | 103 | 3.2 | 11.3 | 0.00 | 0.03 | 0.00 | 78 | 1009.2 |
| 20260509205503 | 29 | 107 | 6.4 | 11.3 | 0.00 | 0.03 | 0.00 | 77 | 1009.0 |
| 20260509205007 | 29 | 119 | 3.2 | 9.7 | 0.00 | 0.03 | 0.00 | 77 | 1009.0 |
| 20260509204511 | 29 | 142 | 4.8 | 9.7 | 0.00 | 0.03 | 0.00 | 77 | 1009.0 |
| 20260509204004 | 29 | 117 | 4.8 | 9.7 | 0.00 | 0.03 | 0.00 | 78 | 1009.1 |
| 20260509203504 | 28 | 190 | 4.8 | 11.3 | 0.00 | 0.03 | 0.00 | 79 | 1009.0 |
| 20260509203033 | 28 | 158 | 4.8 | 11.3 | 0.00 | 0.03 | 0.00 | 81 | 1009.1 |
| 20260509202509 | 28 | 136 | 6.4 | 11.3 | 0.00 | 0.03 | 0.00 | 79 | 1009.1 |
| 20260509202012 | 28 | 128 | 3.2 | 12.9 | 0.00 | 0.03 | 0.00 | 79 | 1009.2 |
| 20260509201521 | 28 | 128 | 4.8 | 12.9 | 0.00 | 0.03 | 0.00 | 81 | 1009.3 |
| 20260509201007 | 28 | 117 | 4.8 | 14.5 | 0.00 | 0.03 | 0.00 | 80 | 1009.4 |
| 20260509200507 | 28 | 129 | 6.4 | 14.5 | 0.00 | 0.03 | 0.00 | 80 | 1009.4 |
| 20260509200026 | 29 | 122 | 8.0 | 14.5 | 0.00 | 0.03 | 0.00 | 80 | 1009.5 |
| 20260509195507 | 29 | 123 | 4.8 | 16.1 | 0.00 | 0.03 | 0.00 | 79 | 1009.4 |
| 20260509195007 | 29 | 138 | 6.4 | 16.1 | 0.00 | 0.03 | 0.00 | 79 | 1009.6 |
| 20260509194507 | 29 | 162 | 4.8 | 11.3 | 0.00 | 0.03 | 0.00 | 77 | 1009.6 |
| 20260509194005 | 28 | 29 | 0.0 | 4.8 | 0.00 | 0.03 | 0.00 | 73 | 1009.7 |
| 20260509193504 | 28 | 29 | 1.6 | 6.4 | 0.00 | 0.03 | 0.00 | 74 | 1009.8 |
| 20260509193013 | 28 | 29 | 1.6 | 6.4 | 0.00 | 0.03 | 0.00 | 74 | 1009.9 |
| 20260509192503 | 28 | 29 | 1.6 | 6.4 | 0.00 | 0.03 | 0.00 | 75 | 1009.8 |
| 20260509192002 | 28 | 29 | 0.0 | 8.0 | 0.00 | 0.03 | 0.00 | 76 | 1009.9 |
| 20260509191503 | 28 | 29 | 1.6 | 8.0 | 0.00 | 0.03 | 0.00 | 77 | 1009.9 |
| 20260509191003 | 28 | 22 | 6.4 | 12.9 | 0.00 | 0.03 | 0.00 | 75 | 1010.0 |
| 20260509190502 | 28 | 350 | 3.2 | 12.9 | 0.00 | 0.03 | 0.00 | 77 | 1009.9 |
| 20260509190006 | 28 | 355 | 8.0 | 14.5 | 0.00 | 0.03 | 0.00 | 78 | 1009.8 |
| 20260509185504 | 28 | 26 | 8.0 | 14.5 | 0.00 | 0.03 | 0.00 | 78 | 1009.8 |
| 20260509185003 | 28 | 5 | 3.2 | 11.3 | 0.00 | 0.03 | 0.00 | 77 | 1009.9 |
| 20260509184509 | 28 | 40 | 3.2 | 11.3 | 0.00 | 0.03 | 0.00 | 78 | 1009.9 |
| 20260509184003 | 28 | 352 | 4.8 | 11.3 | 0.00 | 0.03 | 0.00 | 81 | 1010.0 |
| 20260509183503 | 27 | 333 | 4.8 | 12.9 | 0.00 | 0.03 | 0.00 | 83 | 1010.0 |
| 20260509183018 | 27 | 332 | 3.2 | 14.5 | 0.00 | 0.03 | 0.00 | 83 | 1010.1 |
| 20260509182503 | 27 | 9 | 4.8 | 14.5 | 0.00 | 0.03 | 0.00 | 83 | 1010.1 |
| 20260509182003 | 27 | 37 | 4.8 | 11.3 | 0.00 | 0.03 | 0.00 | 83 | 1010.1 |
| 20260509181518 | 27 | 15 | 4.8 | 9.7 | 0.00 | 0.03 | 0.00 | 83 | 1010.3 |
| 20260509181004 | 27 | 65 | 1.6 | 6.4 | 0.00 | 0.03 | 0.00 | 84 | 1010.2 |
| 20260509180502 | 27 | 100 | 1.6 | 6.4 | 0.00 | 0.03 | 0.00 | 85 | 1010.2 |
| 20260509180005 | 27 | 49 | 3.2 | 9.7 | 0.00 | 0.03 | 0.00 | 84 | 1010.4 |
| 20260509175503 | 27 | 139 | 3.2 | 11.3 | 0.00 | 0.03 | 0.00 | 84 | 1010.5 |
| 20260509175003 | 27 | 61 | 1.6 | 11.3 | 0.00 | 0.03 | 0.00 | 84 | 1010.8 |
| 20260509174508 | 27 | 131 | 3.2 | 8.0 | 0.00 | 0.03 | 0.00 | 84 | 1010.8 |
| 20260509174004 | 27 | 157 | 3.2 | 8.0 | 0.00 | 0.03 | 0.00 | 84 | 1011.0 |
| 20260509173503 | 27 | 198 | 3.2 | 11.3 | 0.00 | 0.03 | 0.00 | 84 | 1011.1 |
| 20260509173012 | 27 | 180 | 4.8 | 11.3 | 0.00 | 0.03 | 0.00 | 85 | 1011.2 |
| 20260509172504 | 27 | 163 | 4.8 | 11.3 | 0.00 | 0.03 | 0.00 | 85 | 1011.2 |
| 20260509172004 | 27 | 202 | 4.8 | 8.0 | 0.00 | 0.03 | 0.00 | 84 | 1011.1 |
| 20260509171516 | 27 | 182 | 1.6 | 8.0 | 0.00 | 0.03 | 0.00 | 85 | 1010.9 |
| 20260509171004 | 27 | 160 | 3.2 | 9.7 | 0.00 | 0.03 | 0.00 | 86 | 1010.9 |
| 20260509170505 | 27 | 168 | 6.4 | 9.7 | 0.00 | 0.03 | 0.00 | 86 | 1010.9 |
| 20260509170018 | 27 | 220 | 3.2 | 9.7 | 0.00 | 0.03 | 0.00 | 86 | 1010.9 |
| 20260509165510 | 27 | 227 | 4.8 | 9.7 | 0.00 | 0.03 | 0.00 | 87 | 1010.8 |
| 20260509165008 | 27 | 219 | 3.2 | 9.7 | 0.00 | 0.03 | 0.00 | 87 | 1011.1 |
| 20260509164504 | 27 | 199 | 4.8 | 9.7 | 0.00 | 0.03 | 0.00 | 88 | 1011.4 |
| 20260509164005 | 27 | 225 | 3.2 | 11.3 | 0.00 | 0.03 | 0.00 | 88 | 1011.2 |
| 20260509163503 | 26 | 156 | 4.8 | 11.3 | 0.00 | 0.03 | 0.00 | 89 | 1011.0 |
| 20260509163007 | 26 | 272 | 3.2 | 11.3 | 0.00 | 0.03 | 0.00 | 89 | 1010.9 |
| 20260509162504 | 26 | 226 | 3.2 | 9.7 | 0.00 | 0.03 | 0.00 | 91 | 1011.0 |
| 20260509162003 | 26 | 202 | 3.2 | 8.0 | 0.00 | 0.03 | 0.00 | 91 | 1011.2 |
| 20260509161514 | 26 | 248 | 3.2 | 8.0 | 0.00 | 0.03 | 0.00 | 92 | 1011.1 |
| 20260509161003 | 26 | 205 | 6.4 | 8.0 | 0.00 | 0.03 | 0.00 | 93 | 1011.0 |
| 20260509160504 | 26 | 225 | 4.8 | 8.0 | 0.00 | 0.03 | 0.00 | 93 | 1011.0 |
| 20260509160016 | 25 | 176 | 1.6 | 6.4 | 0.00 | 0.03 | 0.00 | 93 | 1010.9 |
| 20260509155504 | 25 | 176 | 1.6 | 6.4 | 0.00 | 0.03 | 0.00 | 93 | 1011.2 |
| 20260509155008 | 25 | 176 | 1.6 | 6.4 | 0.00 | 0.03 | 0.00 | 93 | 1011.1 |
| 20260509154520 | 25 | 168 | 3.2 | 8.0 | 0.00 | 0.03 | 0.00 | 93 | 1010.9 |
| 20260509154007 | 25 | 136 | 3.2 | 8.0 | 0.00 | 0.03 | 0.00 | 93 | 1010.8 |
| 20260509153509 | 25 | 215 | 3.2 | 17.7 | 0.00 | 0.03 | 0.00 | 93 | 1011.2 |
| 20260509153011 | 25 | 135 | 6.4 | 17.7 | 0.00 | 0.03 | 0.00 | 93 | 1010.6 |
| 20260509152503 | 25 | 158 | 6.4 | 12.9 | 0.00 | 0.03 | 0.00 | 93 | 1010.3 |
| 20260509152004 | 25 | 151 | 4.8 | 11.3 | 0.00 | 0.03 | 0.00 | 93 | 1010.8 |
| 20260509151510 | 25 | 204 | 1.6 | 3.2 | 0.00 | 0.03 | 0.00 | 94 | 1011.3 |
| 20260509151004 | 25 | 204 | 0.0 | 3.2 | 0.00 | 0.03 | 0.00 | 94 | 1011.1 |
| 20260509150503 | 25 | 204 | 0.0 | 3.2 | 0.00 | 0.03 | 0.00 | 94 | 1011.2 |
| 20260509150012 | 25 | 204 | 0.0 | 4.8 | 0.00 | 0.03 | 0.00 | 94 | 1011.2 |
| 20260509145508 | 25 | 204 | 0.0 | 6.4 | 0.00 | 0.03 | 0.00 | 94 | 1011.3 |
| 20260509145014 | 25 | 204 | 1.6 | 6.4 | 0.00 | 0.03 | 0.00 | 94 | 1011.3 |
| 20260509144519 | 25 | 242 | 0.0 | 8.0 | 0.00 | 0.03 | 0.00 | 94 | 1011.3 |
| 20260509144007 | 25 | 242 | 4.8 | 8.0 | 0.00 | 0.03 | 0.00 | 94 | 1011.3 |
| 20260509143506 | 25 | 217 | 3.2 | 9.7 | 0.00 | 0.03 | 0.00 | 94 | 1011.3 |
| 20260509143028 | 25 | 210 | 3.2 | 9.7 | 0.00 | 0.03 | 0.00 | 94 | 1011.3 |
| 20260509142509 | 25 | 187 | 4.8 | 8.0 | 0.00 | 0.03 | 0.00 | 94 | 1011.4 |
| 20260509142007 | 25 | 196 | 4.8 | 8.0 | 0.00 | 0.03 | 0.00 | 94 | 1011.1 |
| 20260509141505 | 25 | 190 | 3.2 | 11.3 | 0.00 | 0.03 | 0.00 | 94 | 1010.9 |
| 20260509141006 | 25 | 196 | 1.6 | 11.3 | 0.00 | 0.03 | 0.00 | 95 | 1010.7 |
| 20260509140503 | 25 | 198 | 4.8 | 11.3 | 0.00 | 0.03 | 0.00 | 95 | 1010.8 |
| 20260509140012 | 25 | 194 | 4.8 | 11.3 | 0.00 | 0.03 | 0.00 | 95 | 1010.9 |
| 20260509135505 | 25 | 179 | 4.8 | 12.9 | 0.00 | 0.03 | 0.00 | 95 | 1011.1 |
| 20260509135007 | 25 | 218 | 3.2 | 12.9 | 0.00 | 0.03 | 0.00 | 95 | 1011.2 |
| 20260509134514 | 25 | 147 | 4.8 | 11.3 | 0.00 | 0.03 | 0.00 | 95 | 1011.2 |
| 20260509134005 | 25 | 198 | 6.4 | 11.3 | 0.00 | 0.03 | 0.00 | 96 | 1010.8 |
| 20260509133503 | 25 | 188 | 3.2 | 9.7 | 0.00 | 0.03 | 0.00 | 96 | 1010.8 |
| 20260509133022 | 25 | 204 | 6.4 | 9.7 | 0.00 | 0.03 | 0.00 | 95 | 1010.8 |
| 20260509132510 | 25 | 194 | 4.8 | 9.7 | 0.00 | 0.03 | 0.00 | 96 | 1010.7 |
| 20260509132007 | 25 | 199 | 3.2 | 6.4 | 0.00 | 0.03 | 0.00 | 96 | 1010.6 |
| 20260509131530 | 25 | 32 | 3.2 | 4.8 | 0.00 | 0.03 | 0.00 | 96 | 1010.7 |
| 20260509131010 | 25 | 32 | 0.0 | 3.2 | 0.00 | 0.03 | 0.00 | 96 | 1010.7 |
| 20260509130510 | 25 | 32 | 0.0 | 3.2 | 0.00 | 0.03 | 0.00 | 96 | 1010.9 |
| 20260509130027 | 25 | 32 | 1.6 | 3.2 | 0.00 | 0.03 | 0.00 | 96 | 1010.9 |
| 20260509125504 | 25 | 32 | 0.0 | 3.2 | 0.00 | 0.03 | 0.00 | 96 | 1010.7 |
| 20260509125007 | 24 | 32 | 0.0 | 3.2 | 0.00 | 0.03 | 0.00 | 95 | 1010.6 |
| 20260509124510 | 24 | 32 | 0.0 | 3.2 | 0.00 | 0.03 | 0.00 | 96 | 1010.7 |
| 20260509124003 | 24 | 32 | 0.0 | 0.0 | 0.00 | 0.03 | 0.00 | 95 | 1010.7 |
| 20260509123503 | 24 | 32 | 0.0 | 3.2 | 0.00 | 0.03 | 0.00 | 95 | 1010.7 |
| 20260509123017 | 24 | 32 | 0.0 | 4.8 | 0.00 | 0.03 | 0.00 | 96 | 1010.8 |
| 20260509122504 | 24 | 32 | 1.6 | 4.8 | 0.00 | 0.03 | 0.00 | 95 | 1010.9 |
| 20260509122006 | 24 | 32 | 1.6 | 4.8 | 0.00 | 0.03 | 0.00 | 95 | 1011.0 |
| 20260509121523 | 24 | 32 | 0.0 | 1.6 | 0.00 | 0.03 | 0.00 | 95 | 1011.2 |
| 20260509121007 | 24 | 32 | 0.0 | 3.2 | 0.00 | 0.03 | 0.00 | 95 | 1011.1 |
| 20260509120507 | 24 | 32 | 0.0 | 6.4 | 0.00 | 0.03 | 0.00 | 95 | 1011.2 |
| 20260509120023 | 24 | 32 | 1.6 | 6.4 | 0.00 | 0.03 | 0.00 | 95 | 1011.1 |
| 20260509115509 | 24 | 5 | 3.2 | 6.4 | 0.00 | 0.03 | 0.00 | 95 | 1011.1 |
| 20260509115009 | 24 | 5 | 3.2 | 6.4 | 0.00 | 0.03 | 0.00 | 95 | 1010.9 |
| 20260509114525 | 24 | 150 | 1.6 | 4.8 | 0.00 | 0.03 | 0.00 | 95 | 1010.7 |
| 20260509114004 | 24 | 150 | 1.6 | 4.8 | 0.00 | 0.03 | 0.00 | 95 | 1010.8 |
| 20260509113502 | 24 | 150 | 0.0 | 0.0 | 0.00 | 0.03 | 0.00 | 95 | 1010.7 |
| 20260509113016 | 24 | 150 | 0.0 | 0.0 | 0.00 | 0.03 | 0.00 | 95 | 1010.3 |
| 20260509112506 | 24 | 150 | 0.0 | 0.0 | 0.00 | 0.03 | 0.00 | 95 | 1010.5 |
| 20260509112006 | 24 | 150 | 0.0 | 0.0 | 0.00 | 0.03 | 0.00 | 95 | 1010.5 |
| 20260509111518 | 24 | 150 | 0.0 | 0.0 | 0.00 | 0.03 | 0.00 | 95 | 1010.4 |
| 20260509111006 | 24 | 150 | 0.0 | 1.6 | 0.00 | 0.03 | 0.00 | 95 | 1010.3 |
| 20260509110506 | 24 | 150 | 0.0 | 4.8 | 0.00 | 0.03 | 0.00 | 95 | 1010.3 |
| 20260509110024 | 24 | 150 | 0.0 | 4.8 | 0.00 | 0.03 | 0.00 | 95 | 1010.2 |
| 20260509105507 | 24 | 150 | 1.6 | 4.8 | 0.00 | 0.03 | 0.00 | 95 | 1009.9 |
| 20260509105007 | 24 | 150 | 1.6 | 3.2 | 0.00 | 0.03 | 0.00 | 95 | 1010.1 |
| 20260509104508 | 24 | 150 | 0.0 | 4.8 | 0.00 | 0.03 | 0.00 | 95 | 1010.0 |
| 20260509104005 | 24 | 150 | 1.6 | 4.8 | 0.00 | 0.03 | 0.00 | 95 | 1010.1 |
| 20260509103504 | 24 | 150 | 1.6 | 8.0 | 0.00 | 0.03 | 0.00 | 95 | 1010.1 |
| 20260509103013 | 24 | 150 | 1.6 | 8.0 | 0.00 | 0.03 | 0.00 | 95 | 1010.0 |
| 20260509102504 | 24 | 158 | 1.6 | 6.4 | 0.00 | 0.03 | 0.00 | 95 | 1010.0 |
| 20260509102006 | 25 | 136 | 0.0 | 6.4 | 0.00 | 0.03 | 0.00 | 95 | 1010.0 |
| 20260509101516 | 25 | 119 | 1.6 | 6.4 | 0.00 | 0.03 | 0.00 | 95 | 1010.0 |
| 20260509101005 | 24 | 190 | 3.2 | 6.4 | 0.00 | 0.03 | 0.00 | 95 | 1009.9 |
| 20260509100502 | 24 | 138 | 1.6 | 8.0 | 0.00 | 0.03 | 0.00 | 95 | 1009.8 |
| 20260509100004 | 25 | 139 | 3.2 | 8.0 | 0.00 | 0.03 | 0.00 | 95 | 1009.9 |
| 20260509095503 | 25 | 144 | 3.2 | 9.7 | 0.00 | 0.03 | 0.00 | 95 | 1010.0 |
| 20260509095004 | 25 | 177 | 3.2 | 9.7 | 0.00 | 0.03 | 0.00 | 95 | 1009.9 |
| 20260509094505 | 25 | 159 | 3.2 | 11.3 | 0.00 | 0.03 | 0.00 | 95 | 1009.9 |
| 20260509094003 | 24 | 132 | 3.2 | 11.3 | 0.00 | 0.03 | 0.00 | 95 | 1009.8 |
| 20260509093505 | 24 | 165 | 4.8 | 11.3 | 0.00 | 0.03 | 0.00 | 95 | 1009.6 |
| 20260509093007 | 24 | 159 | 3.2 | 14.5 | 0.00 | 0.03 | 0.00 | 95 | 1009.5 |
| 20260509092504 | 24 | 128 | 3.2 | 14.5 | 0.00 | 0.03 | 0.00 | 95 | 1009.5 |
| 20260509092004 | 24 | 150 | 1.6 | 11.3 | 0.00 | 0.03 | 0.00 | 95 | 1009.4 |
| 20260509091520 | 24 | 136 | 3.2 | 11.3 | 0.00 | 0.03 | 0.00 | 95 | 1009.4 |
| 20260509091006 | 24 | 106 | 4.8 | 11.3 | 0.00 | 0.03 | 0.00 | 95 | 1009.4 |
| 20260509090508 | 24 | 153 | 3.2 | 9.7 | 0.00 | 0.03 | 0.00 | 95 | 1009.4 |
| 20260509090020 | 24 | 130 | 3.2 | 8.0 | 0.00 | 0.03 | 0.00 | 95 | 1009.4 |
| 20260509085506 | 24 | 135 | 3.2 | 8.0 | 0.00 | 0.03 | 0.00 | 95 | 1009.7 |
| 20260509085003 | 25 | 148 | 0.0 | 6.4 | 0.00 | 0.03 | 0.00 | 95 | 1009.7 |
| 20260509084507 | 24 | 144 | 1.6 | 6.4 | 0.00 | 0.03 | 0.00 | 95 | 1009.8 |
| 20260509084003 | 25 | 144 | 1.6 | 6.4 | 0.00 | 0.03 | 0.00 | 95 | 1009.9 |
| 20260509083504 | 25 | 154 | 1.6 | 6.4 | 0.00 | 0.03 | 0.00 | 95 | 1009.9 |
| 20260509083008 | 25 | 154 | 3.2 | 6.4 | 0.00 | 0.03 | 0.00 | 95 | 1009.9 |
| 20260509082504 | 25 | 146 | 3.2 | 6.4 | 0.00 | 0.03 | 0.00 | 95 | 1010.0 |
| 20260509082004 | 25 | 146 | 0.0 | 6.4 | 0.00 | 0.03 | 0.00 | 95 | 1010.2 |
| 20260509081511 | 25 | 146 | 1.6 | 6.4 | 0.00 | 0.03 | 0.00 | 95 | 1010.3 |
| 20260509081005 | 25 | 146 | 0.0 | 6.4 | 0.00 | 0.03 | 0.00 | 95 | 1010.4 |
| 20260509080504 | 25 | 146 | 1.6 | 6.4 | 0.00 | 0.03 | 0.00 | 95 | 1010.2 |
| 20260509080024 | 25 | 137 | 1.6 | 6.4 | 0.00 | 0.03 | 0.00 | 95 | 1010.2 |
| 20260509075505 | 25 | 181 | 1.6 | 6.4 | 0.00 | 0.03 | 0.00 | 95 | 1010.1 |
| 20260509075010 | 25 | 156 | 1.6 | 11.3 | 0.00 | 0.03 | 0.00 | 94 | 1010.0 |
| 20260509074518 | 25 | 184 | 0.0 | 11.3 | 0.00 | 0.03 | 0.00 | 94 | 1009.9 |
| 20260509074006 | 25 | 146 | 1.6 | 8.0 | 0.00 | 0.03 | 0.00 | 94 | 1009.8 |
| 20260509073503 | 25 | 177 | 3.2 | 11.3 | 0.00 | 0.03 | 0.00 | 94 | 1009.9 |
| 20260509073006 | 25 | 130 | 3.2 | 11.3 | 0.00 | 0.03 | 0.00 | 94 | 1009.9 |
| 20260509072504 | 25 | 102 | 3.2 | 12.9 | 0.00 | 0.03 | 0.00 | 94 | 1010.0 |
| 20260509072004 | 25 | 156 | 4.8 | 12.9 | 0.00 | 0.03 | 0.00 | 94 | 1010.1 |
| 20260509071508 | 25 | 162 | 4.8 | 11.3 | 0.00 | 0.03 | 0.00 | 94 | 1010.2 |
| 20260509071005 | 25 | 132 | 4.8 | 11.3 | 0.00 | 0.03 | 0.00 | 94 | 1010.2 |
| 20260509070506 | 25 | 133 | 4.8 | 14.5 | 0.00 | 0.03 | 0.00 | 94 | 1010.1 |
| 20260509070011 | 25 | 143 | 4.8 | 14.5 | 0.00 | 0.03 | 0.00 | 94 | 1010.2 |
| 20260509065507 | 25 | 128 | 4.8 | 14.5 | 0.00 | 0.03 | 0.00 | 94 | 1010.1 |
| 20260509065008 | 25 | 144 | 1.6 | 14.5 | 0.00 | 0.03 | 0.00 | 94 | 1010.3 |
| 20260509064517 | 25 | 134 | 1.6 | 12.9 | 0.00 | 0.03 | 0.00 | 94 | 1010.3 |
| 20260509064008 | 25 | 147 | 4.8 | 14.5 | 0.00 | 0.03 | 0.00 | 94 | 1010.4 |
| 20260509063506 | 25 | 148 | 3.2 | 14.5 | 0.00 | 0.03 | 0.00 | 94 | 1010.3 |
| 20260509063029 | 25 | 121 | 6.4 | 14.5 | 0.00 | 0.03 | 0.00 | 94 | 1010.4 |
| 20260509062513 | 25 | 129 | 4.8 | 11.3 | 0.00 | 0.03 | 0.00 | 94 | 1010.2 |
| 20260509062009 | 25 | 122 | 4.8 | 12.9 | 0.00 | 0.03 | 0.00 | 94 | 1010.2 |
| 20260509061505 | 25 | 128 | 3.2 | 12.9 | 0.00 | 0.03 | 0.00 | 94 | 1010.3 |
| 20260509061005 | 25 | 131 | 4.8 | 14.5 | 0.00 | 0.03 | 0.00 | 94 | 1010.2 |
| 20260509060508 | 25 | 146 | 4.8 | 14.5 | 0.00 | 0.03 | 0.00 | 94 | 1010.3 |
| 20260509060015 | 25 | 128 | 6.4 | 14.5 | 0.00 | 0.03 | 0.00 | 94 | 1010.2 |
| 20260509055508 | 25 | 123 | 4.8 | 14.5 | 0.00 | 0.03 | 0.00 | 94 | 1010.3 |